Kenai, AK

9:34 PM AKDT on September 26, 2016 (GMT -0800)
Kenai Municipal

Weather History for PAEN - March, 2013

Change the Weather History Date:

Thursday, March 21, 2013

  Actual Average Record
Temperature  
Mean Temperature 10 °F -  
Max Temperature 25 °F 35 °F 48 °F (1998)
Min Temperature -6 °F 18 °F -20 °F (1951)
Degree Days  
Heating Degree Days 56    
Moisture  
Dew Point 3 °F    
Average Humidity 70    
Maximum Humidity 87    
Minimum Humidity 44    
Precipitation  
Precipitation 0.00 in - - ()
Sea Level Pressure  
Sea Level Pressure 30.14 in    
Wind  
Wind Speed 3 mph (NNE)    
Max Wind Speed 6 mph    
Max Gust Speed -    
Visibility 10 miles    
Events      
Averages and records for this station are not official NWS values.
T = Trace of Precipitation, MM = Missing Value Source: NWS Daily Summary

Daily Weather History Graph

Daily Weather History Graph

Search for Another Location

Airport or City:

Trip Planner

Search our weather history database for the weather conditions in past years. The results will help you decide how hot, cold, wet, or windy it might be!

Date:

Astronomy

Mar. 21, 2013 Rise Set
Actual Time 8:01 AM AKDT 8:23 PM AKDT
Civil Twilight 7:19 AM AKDT 9:06 PM AKDT
Nautical Twilight 6:28 AM AKDT 9:57 PM AKDT
Astronomical Twilight 5:32 AM AKDT 10:54 PM AKDT
Moon 1:47 PM AKDT (3/21) 5:49 AM AKDT (3/21)
Length of Visible Light 13h 46m
Length of Day
12h 21m
Waxing Gibbous, 70% of the Moon is Illuminated
Mar 21
Waxing Gibbous
Mar 27
Full
Apr 2
Last Quarter
Apr 10
New
Apr 18
First Quarter

Hourly Weather History & Observations

Time (AKDT) Temp. Windchill Dew Point Humidity Pressure Visibility Wind Dir Wind Speed Gust Speed Precip Events Conditions
12:53 AM 3.9 °F -3.4 °F -2.9 °F 73% 30.01 in 10.0 mi NNE 3.5 mph - N/A   Clear
1:53 AM -0.0 °F - -5.1 °F 79% 30.03 in 10.0 mi Calm Calm - N/A   Clear
2:53 AM 1.0 °F - -5.1 °F 75% 30.06 in 10.0 mi Calm Calm - N/A   Clear
3:53 AM -4.0 °F - -9.0 °F 79% 30.08 in 10.0 mi Calm Calm - N/A   Clear
4:53 AM -6.0 °F -16.9 °F -9.9 °F 83% 30.08 in 10.0 mi ENE 4.6 mph - N/A   Clear
5:53 AM -6.0 °F - -9.0 °F 87% 30.09 in 10.0 mi Calm Calm - N/A   Clear
6:53 AM 1.9 °F -7.6 °F -2.0 °F 83% 30.11 in 10.0 mi East 4.6 mph - N/A   Clear
7:53 AM -4.0 °F - -8.0 °F 83% 30.14 in 10.0 mi Calm Calm - N/A   Clear
8:53 AM -0.0 °F - -4.0 °F 83% 30.16 in 10.0 mi Calm Calm - N/A   Clear
9:53 AM 3.0 °F -8.0 °F -0.9 °F 84% 30.17 in 10.0 mi ENE 5.8 mph - N/A   Clear
10:53 AM 10.9 °F - 3.9 °F 73% 30.19 in 10.0 mi Calm Calm - N/A   Clear
11:53 AM 16.0 °F 7.4 °F 7.0 °F 68% 30.19 in 10.0 mi NE 5.8 mph - N/A   Clear
12:53 PM 19.9 °F 13.4 °F 8.1 °F 60% 30.20 in 10.0 mi North 4.6 mph - N/A   Clear
1:53 PM 24.1 °F 19.7 °F 5.0 °F 44% 30.20 in 10.0 mi NNW 3.5 mph - N/A   Clear
2:53 PM 24.1 °F 19.7 °F 6.1 °F 46% 30.19 in 10.0 mi NNW 3.5 mph - N/A   Partly Cloudy
3:53 PM 24.1 °F 18.2 °F 10.9 °F 57% 30.20 in 10.0 mi NNW 4.6 mph - N/A   Mostly Cloudy
4:53 PM 25.0 °F 20.7 °F 10.0 °F 53% 30.19 in 10.0 mi NNE 3.5 mph - N/A   Mostly Cloudy
5:53 PM 24.1 °F 19.7 °F 10.9 °F 57% 30.18 in 10.0 mi North 3.5 mph - N/A   Overcast
6:53 PM 23.0 °F 18.4 °F 12.9 °F 65% 30.17 in 10.0 mi NNE 3.5 mph - N/A   Overcast
7:53 PM 21.9 °F 14.5 °F 12.0 °F 66% 30.16 in 10.0 mi NNE 5.8 mph - N/A   Overcast
8:53 PM 21.0 °F 16.2 °F 12.0 °F 68% 30.16 in 10.0 mi North 3.5 mph - N/A   Overcast
9:53 PM 19.9 °F 14.9 °F 10.9 °F 68% 30.14 in 10.0 mi North 3.5 mph - N/A   Overcast
10:53 PM 19.9 °F 13.4 °F 12.0 °F 71% 30.14 in 10.0 mi North 4.6 mph - N/A   Overcast
11:53 PM 19.9 °F 14.9 °F 12.0 °F 71% 30.13 in 10.0 mi NNW 3.5 mph - N/A   Overcast